THOR ABLESTAR DEB, 516

Orbit data source: Space-Track

THOR ABLESTAR DEB, 516 is space debris in LEO originally from a launch on Thu, 29 Jun 1961 UTC launched from the Air Force Eastern Test Range (AFETR). Debris objects in space refer to the collection of defunct objects orbiting the Earth. Examples of debris include non-operational satellites, rocket bodies, and fragments generated from explosions, collisions, or faulty payload assembly.

Loading next visibility...
Identifier
516, 1961-015FT
Orbit
LEO
Country
Flag of USUS
Related business
Manufacturer
Unknown
Mission
Spacecraft
Bus & Motor
Unknown
Mass
Unknown
Launch date (UTC)
1961-06-29 (65 years ago)
Launch vehicle
Unknown
Launch site
Air Force Eastern Test Range (AFETR)
Object type
Payload
Rocket body
Debris
Shape & HBR
Unknown shape, 0.1 m
Radar Cross Section
Medium (>0.1 m² and <1 m²)

Expand to show TLE details & history
Last TLE update: 8 hours ago

TLE from 8 hours ago
0 THOR ABLESTAR DEB
1   516U 61015FT  26118.81880005  .00000381  00000-0  34890-3 0  9992
2   516  65.9944 271.9246 0079516 174.0460 186.1578 13.92785171281519
Epoch: 2026-04-28T19:39Z
TLE epoch observation values (Epoch: 2026-04-28T19:39:04.324Z)
Latitude
-0.00001°
Longitude
120.36793°
Altitude
978.602 km
Speed
7.334 km/s
True Right ascension
18h 07m 41s
True Declination
0° 00' 00"
Sunlit
Object was in full shadow at epoch
Visualization orbit readout
Latitude
Unknown
Longitude
Unknown
Altitude
Unknown
Speed
Unknown
Apparent Right ascension
Unknown
Apparent Declination
Unknown
Sunlit
N/A
Visualization observer readout
Local Sidereal Time
11:03:01
Azimuth
Unknown
Elevation
Unknown
Doppler factor
Unknown
Orbital elements
Apogee altitude
975.383 km
Perigee altitude
859.361 km
Semi-major axis
7,295.509 km
Eccentricity
0.00795
Inclination
65.9944°
RAAN
271.9246°
Arg. of periapsis
174.046°
True anomaly
186.06102°
Mean anomaly
186.1578°
Eccentric anomaly
186.10931°
Mean motion
3.48305 °/min
Orbital period
103.36 mins
BSTAR
0.0003489
Loading maneuver chart data...
Computing Atmospheric mass density...
Loading historical data...
Loading historical data...
Loading historical data...
Loading historical data...
Loading historical data...
Loading historical data...
Loading historical data...

Documentation

Showing up to 5 results
|